STARLINK-32270, 60364

Orbit data source: Space-Track

STARLINK-32270, 60364 is a payload satellite owned by SpaceX/Seattle (US) in LEO that was launched on Sun, 04 Aug 2024 UTC via an FALCON 9 launch vehicle from the Air Force Western Test Range (AFWTR). Payload-class satellites include a variety of spacecraft equipped with specific instruments for various scientific and technological missions. These include communications satellites like Starlink; space stations such as the ISS; scientific satellites like the Hubble; Earth observation satellites from companies like Planet Labs, Umbra, and HawkEye 360; GPS; miniature CubeSats for education and research; and military/defense satellites.

Loading next visibility...
Identifier
60364, 2024-138K
Orbit
LEO
Country
Flag of USUS
Related business
Manufacturer
SpaceX/Seattle
Mission
Operational Commercial Communications
Bus & Motor
STARLINK V2M, Unknown motor
Mass
730 kg wet, ~700 kg dry
Launch date (UTC)
2024-08-04 (1 year ago)
Launch vehicle
FALCON 9
Launch site
Air Force Western Test Range (AFWTR)
Object type
Payload
Rocket body
Debris
Shape & HBR
Box + 2 Pan, 17.7 m
Radar Cross Section
33.884 m², Large (>1 m²)

Expand to show TLE details & history
Last TLE update: 11 hours ago

TLE from 11 hours ago
0 STARLINK-32270
1 60364U 24138K   25353.92476270 -.00000402  00000-0 -14471-5 0  9992
2 60364  53.1627 320.2195 0001298  79.4084 280.7063 15.30201693 78314
Epoch: 2025-12-19T22:11Z
TLE epoch observation values (Epoch: 2025-12-19T22:11:39.497Z)
Latitude
-0.00001°
Longitude
-101.45401°
Altitude
475.945 km
Speed
7.629 km/s
True Right ascension
21h 20m 52s
True Declination
0° 00' 00"
Sunlit
Object was in daylight at epoch
Visualization orbit readout
Latitude
Unknown
Longitude
Unknown
Altitude
Unknown
Speed
Unknown
Apparent Right ascension
Unknown
Apparent Declination
Unknown
Sunlit
N/A
Visualization observer readout
Local Sidereal Time
07:55:07
Azimuth
Unknown
Elevation
Unknown
Doppler factor
Unknown
Orbital elements
Apogee altitude
476.356 km
Perigee altitude
474.576 km
Semi-major axis
6,853.603 km
Eccentricity
0.00013
Inclination
53.1627°
RAAN
320.2195°
Arg. of periapsis
79.4084°
True anomaly
280.69168°
Mean anomaly
280.7063°
Eccentric anomaly
280.69899°
Mean motion
3.82529 °/min
Orbital period
94.11 mins
BSTAR
-0.0000014471
Loading maneuver chart data...
Computing Atmospheric mass density...
Loading historical data...
Loading historical data...
Loading historical data...
Loading historical data...
Loading historical data...
Loading historical data...
Loading historical data...

Documentation

Showing up to 5 results
|